|
NORAD ID: 13483 Int'l Code: 1981-053GF
Perigee: 862.4 km
Apogee: 890.2 km
Inclination: 82.9 °
Period: 102.3 minutes
Semi major axis: 7247 km
Launch date: June 4, 1981
Source: Commonwealth of Independent States (former USSR) (CIS)
Note: This is SATELLITE DEBRIS
Two Line Element Set (TLE):
1 13483U 81053GF 13144.80753743 .00001736 00000-0 10264-2 0 3587
2 13483 082.9334 259.3389 0019158 216.7952 307.0883 14.07148071574058
Source:
NASA's NSSDC Master Catalog entry for COSMOS 1275 DEB
|